RH
70 75 72 56 63 48 49 46 47 48 43 34 32 31 31 35 32 31 30 30 26 26 27 28 28 26 22 20 17 17 16 17 16 15 15 14 14 13 14 12 12 12 12
68 70 70 79 67 67 65 54 49 51 49 44 37 37 34 35 39 40 35 34 33 33 33 36 34 29 28 27 26 23 20 17 14 13 12 12 12 13 14 13 13 14 15
83 78 69 75 84 78 74 73 72 58 56 54 47 40 37 36 40 40 42 40 37 36 38 34 35 31 28 26 26 23 25 23 18 19 16 17 18 17 16 17 16 16 18
93 92 84 78 78 92 80 80 73 75 76 76 61 54 46 42 36 44 44 42 42 40 45 53 55 51 37 33 29 33 32 27 24 22 22 22 19 18 19 20 22 22 22
80 94 94 88 88 87 90 87 79 73 81 77 75 72 64 59 52 44 50 51 44 47 56 62 62 62 57 49 44 43 43 30 27 25 24 25 24 23 23 23 23 23 24
91 94 98 100 95 90 94 100 90 81 85 95 90 79 75 71 66 63 56 59 58 57 58 70 70 71 70 63 56 53 46 40 35 32 32 30 26 25 27 26 26 27 27
94 100 100 100 100 100 100 100 100 99 92 86 85 88 84 87 78 74 67 66 70 68 68 87 91 89 77 80 78 68 59 58 42 41 36 35 35 33 32 31 29 33 35
100 100 100 100 100 100 100 100 100 100 100 94 88 82 76 76 90 82 84 74 71 74 95 100 99 95 96 95 91 81 77 67 60 50 46 45 43 38 33 33 35 40 41
74 76 82 96 100 100 100 100 100 100 100 100 100 99 93 85 89 99 88 88 83 81 100 100 100 100 100 100 100 99 97 80 70 62 55 52 52 44 37 38 40 40 40
46 57 84 77 78 89 100 100 100 100 100 100 94 90 99 93 87 91 100 100 98 92 100 100 100 100 100 100 100 100 95 98 100 84 57 51 54 49 47 49 51 53 57
28 30 37 45 68 75 87 92 94 93 91 90 95 100 93 82 80 82 80 93 100 100 100 100 100 100 100 100 100 98 100 100 98 82 65 66 71 76 58 59 71 68 69
23 23 30 41 36 31 28 27 30 36 50 70 83 85 95 95 96 93 87 79 80 98 100 100 100 100 100 100 87 84 100 100 100 91 80 90 98 91 74 77 78 77 77
25 22 20 17 16 15 16 16 16 17 26 40 57 72 88 87 87 91 100 100 99 78 92 100 100 100 100 100 100 100 100 100 100 98 88 100 100 100 98 88 79 70 74
22 21 20 22 26 24 21 23 22 19 21 23 20 22 44 94 100 94 82 97 100 100 94 91 100 100 100 100 100 100 100 100 100 100 100 100 100 100 89 84 81 82 75
38 40 35 32 32 36 31 25 27 31 35 34 31 30 29 27 38 89 100 100 100 100 100 100 100 100 100 100 100 100 100 100 100 100 99 97 100 100 90 76 86 97 84
35 34 38 36 38 43 39 34 35 32 35 40 47 55 52 42 38 26 53 100 100 100 100 100 100 100 100 100 100 100 100 100 100 100 100 100 98 100 100 94 93 89 98
38 40 39 44 44 43 43 41 36 38 31 39 48 65 74 82 61 42 28 72 100 100 100 100 100 100 100 100 100 100 100 100 100 100 100 100 100 77 82 98 86 92 100
46 49 46 50 46 40 36 38 37 38 24 23 36 46 73 100 91 70 40 30 98 100 100 100 100 100 100 100 100 100 100 100 100 100 100 100 100 100 94 98 98 80 89
33 31 30 30 35 42 42 34 39 41 26 55 77 70 90 100 100 90 60 40 32 74 100 100 100 100 100 100 100 100 100 100 100 100 99 100 97 95 100 100 76 80 99
29 29 26 27 32 38 46 37 42 38 25 59 79 73 100 100 100 100 68 57 43 37 58 74 100 100 100 100 100 100 100 100 100 100 99 100 100 95 100 100 100 100 100
28 27 27 34 36 40 44 43 41 33 35 58 69 96 100 100 100 100 82 76 57 57 43 43 37 54 95 98 100 100 100 100 100 100 100 100 71 76 87 73 78 100 100
27 30 40 41 38 34 43 48 40 34 58 82 67 94 99 100 100 100 89 83 59 58 45 53 54 52 57 60 79 99 100 97 94 99 99 86 63 61 55 46 53 64 94
37 41 42 43 43 40 37 38 34 37 65 67 92 100 100 100 100 100 88 78 61 42 50 57 68 81 92 92 80 90 86 85 82 97 96 94 75 66 68 57 88 100 65
42 43 42 39 41 39 33 46 30 37 84 84 77 100 100 100 100 100 98 85 63 52 61 93 98 100 100 100 100 100 92 80 93 100 97 80 68 72 66 70 56 55 68
44 42 40 37 34 30 28 39 46 34 94 74 81 91 100 100 100 100 100 92 72 45 73 100 100 100 100 100 100 100 100 99 92 100 100 90 73 65 64 72 65 67 81
36 36 35 33 31 29 27 30 37 40 95 69 76 77 99 100 100 100 100 92 74 100 100 100 100 95 91 82 78 85 86 72 90 87 100 94 84 59 68 77 66 82 63
Wind_Speed
31 28 28 28 26 22 20 17 14 12 10 12 10 10 9 7 6 5 5 4 3 4 3 2 4 7 9 12 13 14 15 17 20 22 23 25 25 27 28 28 28 28 30
37 34 32 32 30 29 26 22 20 17 15 14 13 13 12 11 9 9 8 7 7 7 6 7 9 11 10 9 9 9 11 11 12 13 14 15 17 18 20 22 23 25 25
37 37 34 32 33 33 30 26 24 22 21 19 18 17 17 16 13 10 12 13 13 11 10 10 11 12 13 12 13 14 15 15 15 14 15 17 18 19 21 23 24 26 28
39 38 38 36 35 35 35 32 29 26 24 23 23 21 19 19 20 18 15 13 13 13 12 13 16 18 17 16 16 17 18 19 18 20 19 21 22 22 24 26 27 27 30
43 41 41 39 38 38 37 36 34 33 30 29 26 25 25 23 22 22 21 21 20 20 18 18 20 21 22 20 21 24 23 23 22 26 24 27 25 25 28 32 31 33 34
44 43 42 41 41 40 39 37 36 36 36 34 32 32 30 29 27 26 26 25 26 26 25 24 24 24 25 24 23 22 26 27 28 28 32 32 32 32 33 34 34 37 38
47 44 44 44 42 42 41 40 40 39 39 38 38 36 36 33 32 30 30 30 30 30 32 32 30 28 29 27 24 23 27 28 32 34 37 37 38 39 38 38 37 41 42
52 50 47 45 46 45 45 45 43 42 41 41 40 40 39 38 36 36 35 35 35 34 34 32 32 32 31 31 27 25 26 28 32 35 38 39 41 43 43 42 43 43 42
56 55 54 53 51 49 46 46 46 45 44 44 44 43 44 43 42 40 39 38 39 37 34 34 34 34 34 35 31 29 28 30 33 36 38 40 41 42 43 46 46 45 46
57 57 58 58 56 55 54 52 51 50 50 49 49 47 47 46 45 44 42 40 41 39 37 35 35 36 37 36 33 32 30 30 29 34 41 43 41 41 45 48 48 48 47
58 56 57 56 57 57 57 58 58 58 56 55 54 52 52 51 50 48 47 46 44 43 42 40 38 39 40 37 35 33 32 32 33 39 43 42 40 38 43 45 46 49 49
55 54 53 53 52 52 53 55 57 57 58 59 60 59 56 54 53 52 52 51 51 48 45 42 40 42 43 39 39 37 35 35 38 40 41 42 38 38 44 46 48 50 49
42 42 43 43 43 42 41 44 47 52 56 60 63 59 60 61 58 55 54 54 55 53 49 46 46 45 44 41 40 39 39 40 42 42 43 40 39 41 45 48 52 51 51
38 40 40 36 36 36 36 39 38 41 42 43 48 55 63 64 62 62 60 58 57 56 54 52 50 49 44 42 42 41 43 45 43 44 45 43 44 47 49 51 53 51 53
40 40 43 42 41 44 41 42 43 45 46 48 49 52 54 55 63 64 64 63 60 58 56 55 55 53 50 44 46 46 47 48 48 46 47 48 49 50 52 55 55 50 54
47 47 48 48 48 46 47 50 48 46 52 55 59 62 63 65 63 61 65 68 65 62 60 58 58 57 55 54 52 50 52 52 52 51 51 52 54 54 56 57 54 54 53
51 49 51 50 50 50 51 52 52 51 56 60 65 68 69 72 76 68 63 66 67 66 64 62 60 60 58 55 55 56 56 55 53 53 53 53 55 57 57 59 59 57 54
51 53 53 54 53 53 53 55 54 55 59 62 70 74 74 72 76 75 70 66 67 66 65 63 63 62 61 59 59 58 59 58 57 56 58 57 57 58 61 59 58 63 59
57 56 56 56 56 57 54 56 54 57 59 62 66 78 75 71 69 76 68 66 65 63 61 62 65 67 64 61 59 58 58 60 60 57 57 57 59 62 62 64 64 64 62
63 61 59 60 58 57 56 57 57 60 57 63 52 52 67 64 69 69 73 70 65 65 65 64 61 60 62 62 57 56 55 54 55 56 58 59 58 62 63 62 62 65 64
68 67 65 65 64 60 58 60 58 56 55 59 49 41 44 54 66 69 77 72 66 62 62 61 62 60 60 59 54 51 52 56 61 62 59 56 52 55 52 53 57 63 66
74 73 71 70 65 61 59 61 58 54 52 52 50 44 47 53 62 71 79 73 69 61 63 64 66 63 62 59 57 54 58 62 62 60 59 49 45 39 43 47 53 55 62
79 79 75 73 70 69 65 63 59 54 51 46 37 46 43 53 63 69 79 74 71 67 67 67 64 64 59 54 56 58 58 60 58 56 54 54 48 46 44 53 57 59 62
84 82 80 77 74 71 69 64 60 53 52 47 45 43 44 56 60 65 72 73 70 68 64 63 61 58 54 52 50 54 55 58 57 57 57 49 45 45 49 53 60 57 58
83 82 81 79 76 69 64 62 63 51 53 49 51 44 40 45 60 62 63 66 69 65 61 61 57 52 49 48 50 51 54 57 58 60 57 59 57 56 66 61 64 62 61
83 83 81 78 75 70 65 59 59 53 54 50 52 44 40 43 49 58 62 60 58 55 52 50 51 50 51 53 50 52 53 53 58 60 60 61 63 67 69 70 68 56 50
Wind_Direction
227 223 218 217 219 218 215 221 230 241 243 244 243 245 246 250 248 244 237 227 225 229 253 304 316 290 286 280 282 283 283 282 278 276 279 280 281 280 282 286 290 296 302
228 227 227 223 219 223 228 235 240 242 252 248 246 249 257 255 258 260 245 231 209 232 246 272 282 287 288 294 299 304 306 299 293 300 298 302 303 301 303 314 318 322 324
233 231 232 232 231 223 226 230 236 244 253 256 251 245 249 256 257 265 258 252 247 241 252 268 282 292 300 302 307 306 321 335 325 327 332 340 343 340 342 339 335 336 339
235 235 236 238 241 240 230 231 232 236 242 252 256 255 251 251 255 258 260 252 244 250 257 273 288 297 297 296 300 313 314 325 334 331 343 343 340 344 346 346 345 344 345
234 235 238 240 240 238 241 237 235 237 239 245 247 254 259 255 255 256 259 261 258 261 269 276 282 290 295 301 309 314 313 316 322 333 330 335 342 343 347 355 350 348 346
234 236 238 240 238 236 238 241 243 242 243 246 251 252 254 258 255 257 259 262 265 267 270 270 275 282 291 295 301 304 309 312 323 328 337 338 338 342 343 347 348 348 349
233 233 238 239 239 241 245 247 248 252 254 253 253 252 254 254 257 259 260 261 264 268 271 270 269 277 285 284 292 300 307 311 318 322 331 332 336 338 341 342 341 346 344
232 232 233 235 236 241 245 247 249 252 253 256 257 258 257 255 255 257 261 266 264 265 272 277 278 282 281 281 290 297 303 306 310 317 326 327 327 333 335 339 338 340 339
233 234 235 234 235 238 241 243 247 251 253 255 258 260 261 260 260 259 258 262 265 268 271 273 276 280 285 289 289 296 305 304 308 312 320 323 323 325 327 333 334 333 334
237 238 240 240 241 240 241 243 245 247 251 255 257 257 258 260 261 262 263 261 263 267 269 269 272 275 279 288 289 292 299 301 301 305 314 317 319 321 325 327 328 330 331
237 239 240 242 243 244 245 247 249 250 252 254 253 255 257 257 259 259 261 262 263 263 262 262 269 272 278 281 285 292 294 292 293 300 307 309 309 312 319 320 321 324 327
241 241 241 242 245 246 247 248 250 250 251 253 254 254 254 255 257 257 259 261 262 265 264 258 257 267 275 276 281 284 286 289 291 295 303 305 302 303 311 315 317 318 321
234 235 236 237 239 239 244 249 251 251 252 251 250 254 257 257 257 256 258 260 262 264 264 267 265 266 269 274 279 281 281 283 290 296 301 300 295 301 305 310 310 313 315
235 236 236 239 247 252 251 250 258 252 257 258 255 255 254 254 257 259 258 258 259 261 265 264 268 271 272 271 273 276 278 284 284 288 293 290 295 294 300 301 304 306 310
238 242 244 247 252 255 259 261 267 265 268 268 268 264 261 259 256 255 258 257 258 259 262 264 266 266 271 271 273 274 278 282 283 286 288 288 291 290 297 299 300 300 306
244 244 246 248 250 253 257 258 264 263 264 265 265 266 265 263 260 255 254 255 255 256 259 261 262 264 268 271 272 274 278 280 280 283 284 288 290 292 294 296 298 299 302
245 247 244 250 253 254 258 262 267 271 272 271 270 266 261 258 258 256 252 253 254 253 256 258 261 264 266 269 271 275 277 278 278 282 284 286 290 293 294 296 298 301 300
247 247 249 252 256 259 260 265 271 277 276 278 274 268 260 255 250 248 249 249 251 251 254 257 259 261 265 266 270 273 274 276 278 280 285 287 288 291 294 295 296 298 299
250 251 252 255 258 261 264 269 276 279 282 284 278 267 254 248 249 243 242 247 250 252 252 256 258 258 261 264 268 272 273 275 279 280 283 286 289 294 294 294 299 298 300
254 255 257 259 261 263 263 270 275 281 280 282 280 260 251 245 239 242 238 242 249 252 254 256 258 261 263 266 267 270 272 273 276 279 280 287 288 292 293 294 296 299 300
255 257 259 261 262 264 263 268 272 278 280 287 279 261 255 248 240 239 234 239 244 250 254 257 261 262 261 264 264 267 270 272 274 276 281 286 287 291 297 301 301 296 297
257 259 261 261 262 262 263 266 271 276 278 281 280 272 274 249 239 232 231 235 240 247 252 256 261 266 264 265 263 261 264 267 275 279 282 283 287 289 298 297 303 305 301
254 256 259 260 261 264 264 266 268 274 272 279 272 264 267 242 231 231 231 233 237 245 251 254 261 264 266 263 261 263 267 270 275 277 278 284 277 278 292 300 294 296 299
256 258 259 259 260 261 263 261 264 267 266 267 266 260 253 242 229 231 231 234 235 242 249 254 260 262 263 263 263 264 269 275 276 277 278 275 272 281 293 298 301 294 298
254 254 256 258 259 259 258 256 259 261 258 265 267 254 257 246 236 231 233 233 236 242 249 253 257 255 258 259 263 266 269 276 278 278 278 270 274 287 295 294 300 297 295
252 253 254 256 257 257 257 256 252 253 251 260 257 243 245 246 237 234 238 237 236 242 246 249 252 250 252 258 264 270 271 273 276 282 277 276 276 284 288 290 295 292 301